When you browse on this site, cookies collect data to enhance your experience and personalize the content and advertising you see.
Visit our Privacy Policy to learn more. By continuing to use the site, you agree to this use of cookies and data.
  • en Suisse
  • Liste des pays
  • À 7 jours
  • Température de l'eau
  • Carte météo
  • Widgets météo
  • user-avatar
    Se connecter

    Météo par heure à Kolomenskoe

    Ce jour, 4 Juin, Jeudi

    Heure Température Précipitation Vent Pression Humidité
    00:00 +12°C° 0.4 mm 3 m/s 734 mmHg 97%
    01:00 +12°C° 0 mm 3 m/s 734 mmHg 97%
    02:00 +12°C° 0 mm 2 m/s 734 mmHg 96%
    03:00 +12°C° 0 mm 2 m/s 734 mmHg 96%
    04:00 +12°C° 0 mm 2 m/s 735 mmHg 96%
    05:00 +12°C° 0 mm 2 m/s 735 mmHg 95%
    06:00 +12°C° 0 mm 3 m/s 735 mmHg 94%
    07:00 +13°C° 0 mm 3 m/s 735 mmHg 90%
    08:00 +14°C° 0 mm 3 m/s 735 mmHg 85%
    09:00 +17°C° 0 mm 3 m/s 736 mmHg 81%
    10:00 +17°C° 0.2 mm 3 m/s 735 mmHg 78%
    11:00 +18°C° 0.2 mm 3 m/s 735 mmHg 75%
    12:00 +19°C° 0.2 mm 4 m/s 735 mmHg 72%
    13:00 +19°C° 0.8 mm 4 m/s 736 mmHg 74%
    14:00 +19°C° 0.8 mm 5 m/s 736 mmHg 75%
    15:00 +17°C° 0 mm 5 m/s 736 mmHg 75%
    16:00 +17°C° 0.2 mm 5 m/s 737 mmHg 77%
    17:00 +16°C° 0.2 mm 5 m/s 737 mmHg 78%
    18:00 +16°C° 0.2 mm 5 m/s 737 mmHg 79%
    19:00 +14°C° 0 mm 5 m/s 737 mmHg 83%
    20:00 +13°C° 0 mm 4 m/s 738 mmHg 87%
    21:00 +12°C° 0 mm 3 m/s 738 mmHg 91%
    22:00 +12°C° 0 mm 3 m/s 738 mmHg 92%
    23:00 +11°C° 0 mm 3 m/s 739 mmHg 93%

    Demain, 5 Juin, Vendredi

    Heure Température Précipitation Vent Pression Humidité
    00:00 +11°C° 0 mm 3 m/s 739 mmHg 94%
    01:00 +11°C° 0 mm 3 m/s 739 mmHg 94%
    02:00 +11°C° 0 mm 3 m/s 739 mmHg 94%
    03:00 +10°C° 0 mm 3 m/s 740 mmHg 94%
    04:00 +11°C° 0 mm 4 m/s 740 mmHg 92%
    05:00 +11°C° 0 mm 4 m/s 740 mmHg 91%
    06:00 +12°C° 0 mm 5 m/s 740 mmHg 89%
    07:00 +13°C° 0.1 mm 5 m/s 740 mmHg 85%
    08:00 +15°C° 0.1 mm 6 m/s 740 mmHg 81%
    09:00 +16°C° 0.1 mm 7 m/s 740 mmHg 78%
    10:00 +17°C° 0.1 mm 7 m/s 740 mmHg 75%
    11:00 +17°C° 0.1 mm 7 m/s 740 mmHg 72%
    12:00 +18°C° 0.1 mm 8 m/s 740 mmHg 69%
    13:00 +17°C° 0.9 mm 8 m/s 740 mmHg 74%
    14:00 +16°C° 0.9 mm 8 m/s 740 mmHg 79%
    15:00 +15°C° 0.9 mm 8 m/s 740 mmHg 84%
    16:00 +14°C° 1.9 mm 7 m/s 740 mmHg 87%
    17:00 +13°C° 1.9 mm 6 m/s 740 mmHg 90%
    18:00 +13°C° 1.9 mm 5 m/s 740 mmHg 93%
    19:00 +12°C° 0.1 mm 5 m/s 740 mmHg 94%
    20:00 +12°C° 0.1 mm 4 m/s 740 mmHg 95%
    21:00 +12°C° 0.1 mm 4 m/s 740 mmHg 96%
    22:00 +12°C° 0 mm 3 m/s 740 mmHg 96%
    23:00 +12°C° 0 mm 3 m/s 740 mmHg 97%

    Après-demain, 6 Juin, Samedi

    Heure Température Précipitation Vent Pression Humidité
    00:00 +11°C° 0 mm 3 m/s 740 mmHg 98%
    01:00 +12°C° 0 mm 3 m/s 741 mmHg 98%
    02:00 +12°C° 0 mm 3 m/s 741 mmHg 98%
    03:00 +13°C° 0 mm 3 m/s 741 mmHg 98%
    04:00 +13°C° 0 mm 3 m/s 741 mmHg 98%
    05:00 +13°C° 0 mm 3 m/s 741 mmHg 97%
    06:00 +15°C° 0 mm 2 m/s 741 mmHg 97%
    07:00 +16°C° 0 mm 3 m/s 742 mmHg 94%
    08:00 +17°C° 0 mm 3 m/s 742 mmHg 92%
    09:00 +18°C° 0 mm 3 m/s 743 mmHg 89%
    10:00 +19°C° 0 mm 4 m/s 743 mmHg 86%
    11:00 +20°C° 0 mm 4 m/s 743 mmHg 83%
    12:00 +21°C° 0 mm 4 m/s 743 mmHg 80%
    13:00 +22°C° 0.2 mm 4 m/s 743 mmHg 78%
    14:00 +23°C° 0.2 mm 4 m/s 743 mmHg 76%
    15:00 +25°C° 0.2 mm 4 m/s 743 mmHg 75%
    16:00 +25°C° 0.5 mm 4 m/s 743 mmHg 78%
    17:00 +23°C° 0.5 mm 4 m/s 743 mmHg 80%
    18:00 +23°C° 0.5 mm 4 m/s 743 mmHg 83%
    19:00 +22°C° 0.5 mm 4 m/s 743 mmHg 86%
    20:00 +21°C° 0.5 mm 4 m/s 743 mmHg 88%
    21:00 +19°C° 0.5 mm 4 m/s 744 mmHg 90%
    22:00 +19°C° 0.1 mm 3 m/s 744 mmHg 91%
    23:00 +19°C° 0.1 mm 3 m/s 744 mmHg 91%

    7 Juin, Dimanche

    Heure Température Précipitation Vent Pression Humidité
    00:00 +18°C° 0.1 mm 3 m/s 744 mmHg 92%
    01:00 +18°C° 0 mm 3 m/s 745 mmHg 93%
    02:00 +18°C° 0 mm 3 m/s 745 mmHg 93%
    03:00 +18°C° 0 mm 3 m/s 745 mmHg 94%
    04:00 +18°C° 0 mm 2 m/s 746 mmHg 94%
    05:00 +18°C° 0 mm 2 m/s 746 mmHg 93%
    06:00 +19°C° 0 mm 1 m/s 746 mmHg 93%
    07:00 +20°C° 0 mm 1 m/s 747 mmHg 89%
    08:00 +22°C° 0 mm 1 m/s 747 mmHg 85%
    09:00 +23°C° 0 mm 1 m/s 747 mmHg 81%
    10:00 +24°C° 0.2 mm 2 m/s 747 mmHg 78%
    11:00 +25°C° 0.2 mm 2 m/s 747 mmHg 74%
    12:00 +26°C° 0.2 mm 3 m/s 748 mmHg 71%
    13:00 +26°C° 0.3 mm 3 m/s 748 mmHg 70%
    14:00 +26°C° 0.3 mm 3 m/s 747 mmHg 70%
    15:00 +27°C° 0.3 mm 3 m/s 747 mmHg 69%
    16:00 +27°C° 0.1 mm 3 m/s 747 mmHg 72%
    17:00 +26°C° 0.1 mm 2 m/s 747 mmHg 74%
    18:00 +26°C° 0.1 mm 2 m/s 747 mmHg 77%
    19:00 +25°C° 0.3 mm 2 m/s 747 mmHg 80%
    20:00 +23°C° 0.3 mm 1 m/s 747 mmHg 84%
    21:00 +22°C° 0.3 mm 1 m/s 747 mmHg 87%
    22:00 +21°C° 0.3 mm 1 m/s 747 mmHg 89%
    23:00 +19°C° 0.3 mm 2 m/s 747 mmHg 90%

    8 Juin, Lundi

    Heure Température Précipitation Vent Pression Humidité
    00:00 +19°C° 0.3 mm 2 m/s 748 mmHg 92%
    01:00 +19°C° 0 mm 2 m/s 748 mmHg 92%
    02:00 +19°C° 0 mm 1 m/s 748 mmHg 92%
    03:00 +19°C° 0 mm 1 m/s 748 mmHg 92%
    04:00 +20°C° 0 mm 1 m/s 748 mmHg 91%
    05:00 +20°C° 0 mm 1 m/s 748 mmHg 90%
    06:00 +21°C° 0 mm 1 m/s 748 mmHg 89%
    07:00 +22°C° 0.2 mm 1 m/s 748 mmHg 85%
    08:00 +23°C° 0.2 mm 1 m/s 748 mmHg 81%
    09:00 +24°C° 0.2 mm 1 m/s 748 mmHg 77%
    10:00 +25°C° 0.7 mm 1 m/s 748 mmHg 74%
    11:00 +26°C° 0.7 mm 2 m/s 748 mmHg 71%
    12:00 +27°C° 0.7 mm 2 m/s 748 mmHg 68%
    13:00 +27°C° 0.2 mm 2 m/s 748 mmHg 67%
    14:00 +27°C° 0.2 mm 2 m/s 748 mmHg 67%
    15:00 +27°C° 0.2 mm 1 m/s 747 mmHg 66%
    16:00 +27°C° 0.1 mm 1 m/s 747 mmHg 67%
    17:00 +27°C° 0.1 mm 1 m/s 747 mmHg 68%
    18:00 +25°C° 0.1 mm 0 m/s 747 mmHg 69%
    19:00 +26°C° 0 mm 1 m/s 747 mmHg 73%
    20:00 +24°C° 0 mm 1 m/s 747 mmHg 78%
    21:00 +22°C° 0 mm 1 m/s 747 mmHg 83%
    22:00 +22°C° 0 mm 1 m/s 747 mmHg 84%
    23:00 +21°C° 0 mm 1 m/s 747 mmHg 86%

    9 Juin, Mardi

    Heure Température Précipitation Vent Pression Humidité
    00:00 +21°C° 0 mm 1 m/s 747 mmHg 88%
    01:00 +21°C° 0 mm 1 m/s 747 mmHg 89%
    02:00 +20°C° 0 mm 1 m/s 747 mmHg 90%
    03:00 +20°C° 0 mm 1 m/s 747 mmHg 91%
    04:00 +20°C° 0 mm 1 m/s 747 mmHg 90%
    05:00 +21°C° 0 mm 1 m/s 747 mmHg 90%
    06:00 +21°C° 0 mm 1 m/s 747 mmHg 90%
    07:00 +23°C° 0.3 mm 1 m/s 748 mmHg 86%
    08:00 +24°C° 0.3 mm 2 m/s 748 mmHg 83%
    09:00 +25°C° 0.3 mm 2 m/s 748 mmHg 80%
    10:00 +26°C° 0.7 mm 2 m/s 748 mmHg 77%
    11:00 +27°C° 0.7 mm 3 m/s 748 mmHg 74%
    12:00 +28°C° 0.7 mm 3 m/s 748 mmHg 71%
    13:00 +27°C° 0.9 mm 3 m/s 747 mmHg 72%
    14:00 +27°C° 0.9 mm 3 m/s 747 mmHg 73%
    15:00 +27°C° 0.9 mm 3 m/s 747 mmHg 75%
    16:00 +27°C° 0.5 mm 3 m/s 747 mmHg 78%
    17:00 +26°C° 0.5 mm 3 m/s 747 mmHg 81%
    18:00 +26°C° 0.5 mm 3 m/s 747 mmHg 84%
    19:00 +25°C° 0 mm 3 m/s 747 mmHg 86%
    20:00 +22°C° 0 mm 3 m/s 747 mmHg 89%
    21:00 +21°C° 0 mm 3 m/s 747 mmHg 92%
    22:00 +20°C° 0 mm 3 m/s 747 mmHg 92%
    23:00 +20°C° 0 mm 3 m/s 747 mmHg 93%
    Voir plus